Showing default

CHINASAT 6C, 44067

Orbit data source: Space-Track

CHINASAT 6C, 44067 is a payload satellite owned by PLA SSF (CN) in GEO that was launched on Sat, 09 Mar 2019 UTC via a CHANG ZHENG 3B launch vehicle from the Xichang Space Center, China (XSC). Payload-class satellites include a variety of spacecraft equipped with specific instruments for various scientific and technological missions. These include communications satellites like Starlink; space stations such as the ISS; scientific satellites like the Hubble; Earth observation satellites from companies like Planet Labs, Umbra, and HawkEye 360; GPS; miniature CubeSats for education and research; and military/defense satellites.

Not visible in the next 10 days
Identifier
44067, 2019-012A
Orbit
GEO
Country
Flag of CNCN / PRC
Related business
Manufacturer
CAST
Mission
Partially operational Civil Communications
Bus & Motor
DFH-4, DFH-4 LAE
Mass
~5,250 kg wet, ~2,500 kg dry
Launch date (UTC)
2019-03-09 (8 years ago)
Launch vehicle
CHANG ZHENG 3B
Launch site
Xichang Space Center, China (XSC)
Object type
Payload
Rocket body
Debris
Shape & HBR
Box + 2 Pan, 15.0 m
Radar Cross Section
34.063 m², Large (>1 m²)

Expand to show TLE details & history
Last TLE update: 14 hours ago

TLE from 14 hours ago
0 CHINASAT 6C
1 44067U 19012A   26263.01815248 -.00000339  00000-0  00000+0 0  9997
2 44067   0.0392 327.3980 0014105  97.5167  70.9906  1.00274050 27699
Epoch: 2026-09-20T00:26Z
TLE epoch observation values (Epoch: 2026-09-20T00:26:08.374Z)
Latitude
-0.01817°
Longitude
130.59353°
Altitude
35,766.333 km
Speed
3.076 km/s
True Right ascension
09h 04m 11s
True Declination
0° 01' 05"
Sunlit
Object was in daylight at epoch
Visualization orbit readout
Latitude
Unknown
Longitude
Unknown
Altitude
Unknown
Speed
Unknown
Apparent Right ascension
Unknown
Apparent Declination
Unknown
Sunlit
N/A
Visualization observer readout
Local Sidereal Time
07:08:11
Azimuth
Unknown
Elevation
Unknown
Doppler factor
Unknown
Orbital elements
Apogee altitude
35,846.504 km
Perigee altitude
35,727.556 km
Semi-major axis
42,165.167 km
Eccentricity
0.00141
Inclination
0.0392°
RAAN
327.398°
Arg. of periapsis
97.5167°
True anomaly
71.1435°
Mean anomaly
70.9906°
Eccentric anomaly
71.06704°
Mean motion
0.25068 °/min
Orbital period
1,436.12 mins
BSTAR
0
Loading maneuver chart data...
Computing Atmospheric mass density...
Loading historical data...
Loading historical data...
Loading historical data...
Loading historical data...
Loading historical data...
Loading historical data...
Loading historical data...
Other satellites on launch #12 in the year 2019 (2019-03-09 UTC)

Documentation

Showing up to 5 results
|